Tracking 19562 objects as of 23-Mar-2019
HD Live streaming from Space Station
objects crossing your sky now

FLOCK 3P 84

Track FLOCK 3P 84 now!
10-day predictions
FLOCK 3P 84 is classified as:


NORAD ID: 42021
Int'l Code: 2017-008CB
Perigee: 490.5 km
Apogee: 504.3 km
Inclination: 97.4 °
Period: 94.4 minutes
Semi major axis: 6868 km
RCS: Unknown
Launch date: February 15, 2017
Source: United States (US)
Launch site: SRIHARIKOTA (SRI)
aabbcc
Your satellite tracking list
Your tracking list is empty




NASA's NSSDC Master Catalog

Two Line Element Set (TLE):
1 42021U 17008CB  19082.83235563  .00000966  00000-0  41339-4 0  9995
2 42021  97.4177 150.9217 0010007  91.9949 268.2435 15.25173892116562
Source of the keplerian elements: AFSPC